AirNav   ProFlight Series 2 Aviation Headset
 
 652 users online  

64PN Hershey Medical Center Heliport
Hershey, Pennsylvania, USA

GOING TO HERSHEY?


FAA INFORMATION EFFECTIVE 18 JUNE 2020

Location

FAA Identifier: 64PN
Lat/Long: 40-15-54.3900N 076-40-30.5600W
40-15.906500N 076-40.509333W
40.2651083,-76.6751556
(estimated)
Elevation: 465 ft. / 142 m (estimated)
Variation: 10W (1985)
From city: 2 miles SW of HERSHEY, PA
Time zone: UTC -4 (UTC -5 during Standard Time)
Zip code: 17033

Heliport Operations

Heliport use: Private use, MEDICAL USE.
Activation date: 04/1981
Control tower: no
ARTCC: NEW YORK CENTER
FSS: WILLIAMSPORT FLIGHT SERVICE STATION
NOTAMs facility: FDC (NOTAM-D service not available)
Attendance: CONTINUOUS
Wind indicator: lighted
Segmented circle: no
Lights: FOR PERIMETER LGTS CALL 717-531-7777 OR CTC HOSP - 123.050.
Beacon: CLEAR/RED/YELLOW. FOR ROTG BCN CALL 717-531-7777 OR CTC HOSPITAL ON FREQ 123.050.

Heliport Communications

UNICOM: 123.05
WX ASOS at MDT (6 nm SW): 118.8 (717-944-1372)
WX ASOS at CXY (9 nm W): PHONE 717-770-0880
WX ASOS at MUI (11 nm NE): 124.175 (717-861-2536)
WX AWOS-2 at 9D4 (17 nm E): 118.45 (717-866-2906)
WX ASOS at LNS (19 nm SE): 125.675 (717-569-8860)

Nearby radio navigation aids

VOR radial/distance  VOR name  Freq  Var
RAVr202/17.6RAVINE VORTAC114.6011W
HARr107/18.2HARRISBURG VORTAC112.5010W
LRPr305/19.6LANCASTER VOR/DME117.3009W
SEGr171/33.0SELINSGROVE VOR/DME110.4008W

 
NDB name  Hdg/Dist  Freq  Var  ID
ENOLA095/10.420411WMD -- -..
BELLGROVE219/11.732810WBZJ -... --.. .---

Heliport Services

Runway Information

Helipad H1

Dimensions: 80 x 80 ft. / 24 x 24 m
FULL SURFACE OF FATO LOAD BEARING, MACADAM AND CONCRETE.
Surface: asphalt
Runway edge lights: PERI
Latitude: 40-15.906500N
Longitude: 076-40.509333W
Elevation: 465.0 ft.
Traffic pattern: leftleft

Heliport Ownership and Management from official FAA records

Ownership: Privately-owned
Owner: THE MILTON S. HERSHERY MEDICAL CTR
500 UNIVERSITY DR
HERSHEY, PA 17033
Phone 717-531-7365
Manager: DIRECTOR OF OPERATIONS
500 UNIVERSITY DR
HERSHEY, PA 17033
Phone 717-531-8760

Additional Remarks

FOR CD CTC HARRISBURG APCH AT 800-932-0712.

Instrument Procedures

There are no published instrument procedures at 64PN.

Some nearby airports with instrument procedures:

58N - Reigle Field Airport (5 nm E)
KMDT - Harrisburg International Airport (6 nm SW)
KCXY - Capital City Airport (9 nm W)
KMUI - Muir Army Airfield (Fort Indiantown Gap) (11 nm NE)
N71 - Donegal Springs Airpark (11 nm SE)
08N - Keller Brothers Airport (16 nm E)
9D4 - Deck Airport (17 nm E)
74N - Bendigo Airport (18 nm N)
KLNS - Lancaster Airport (19 nm SE)
 
Loc | Ops | Rwys | IFR | FBO | Links
Com | Nav | Svcs | Stats | Notes
Area around 64PN (Hershey Medical Center Heliport)
 
Road maps at: MapQuest Bing Google
 
Aerial photo
No photo
 
Sectional chart

 
Airport distance calculator
Flying to Hershey Medical Center Heliport? Find the distance to fly.

From to 64PN

Sunrise and sunset
Times for 11-Jul-2020
 Local
(UTC-4)
 Zulu
(UTC)
Morning civil twilight05:1609:16
Sunrise05:4809:48
Sunset20:3600:36
Evening civil twilight21:0801:08

Current date and time
Zulu (UTC)  11-Jul-2020 04:03:51
Local (UTC-4)  11-Jul-2020 00:03:51
 
METAR
KMDT 
6nm SW 
110356Z 26011KT 10SM SCT090 26/21 A2972 RMK AO2 SLP062 T02560206
KCXY 
9nm W 
110356Z AUTO 26006KT 10SM FEW090 23/19 A2972 RMK AO2 SLP063 T02330194
KMUI 
10nm NE 
110356Z AUTO 22007KT 10SM CLR 22/21 A2972 RMK AO2 SLP064 T02170207
KLNS 
19nm SE 
110353Z AUTO 25007KT 10SM CLR 23/21 A2973 RMK AO2 SLP064 T02280206
TAF
KMDT 
6nm SW 
102114Z 1021/1118 02008KT P6SM -RA BKN045 OVC070 FM102300 03008KT P6SM BKN040 OVC080 FM110100 00000KT P6SM BKN080 FM110600 00000KT P6SM VCFG BKN050 FM111300 25006KT P6SM BKN050
KMUI 
10nm NE 
101550Z 1015/1117 VRB06KT 9999 BKN025 QNH2989INS BECMG 1015/1016 08012KT 8000 -SHRA OVC025 QNH2988INS TEMPO 1016/1023 VRB15G20KT 9000 -TSRA OVC020CB BECMG 1023/1024 VRB06KT 9000 -SHRA BKN020 QNH2977INS BECMG 1100/1101 VRB06KT 4800 BR BKN030 QNH2961INS BECMG 1113/1114 24010G15KT 9999 NSW BKN040 QNH2964INS TX27/1017Z TN19/1110Z
KLNS 
19nm SE 
110130Z 1102/1124 28009KT P6SM VCSH BKN045 OVC060 FM110600 00000KT P6SM VCFG BKN040 FM111400 25006KT P6SM BKN050 FM111800 27010KT P6SM VCTS BKN050CB
NOTAMs
Click for the latest NOTAMs
NOTAMs are issued by the DoD/FAA and will open in a separate window not controlled by AirNav.

 

 
 

Would you like to see your business listed on this page?

 If your business provides an interesting product or service to pilots, flight crews, aircraft, or users of the Hershey Medical Center Heliport, you should consider listing it here.  To start the listing process, click on the button below
 
Add a business
 

Other Pages about Hershey Medical Center Heliport

Update a link
 
Copyright © AirNav, LLC. All rights reserved. Privacy Policy  Contact